SCP
-0 -0 -0 -0 0 0 0 0 0 -0 -0 -0 0 0 0 0 0 -0 -0 0 0 0 0 0 0 0 -0 -0 -0 -0 -0 -0 -0 -0 -0 -0 -0 -0 -0 -0 -0 0 -0
-0 -0 -0 0 -0 -0 0 0 0 0 -0 -0 0 -0 0 0 -0 0 0 0 0 0 0 0 0 0 0 0 -0 -0 -0 -0 -0 -0 -0 -0 -0 -0 -0 -0 -0 -0 -0
-0 -0 -0 0 -0 0 0 0 0 0 -0 -0 0 -0 -0 0 0 0 -0 -0 0 0 -0 -0 -0 0 0 0 0 0 -0 -0 -0 -0 -0 -0 -0 -0 -0 -0 -0 0 -0
-0 0 -0 -0 -0 0 0 0 0 -0 -0 -0 0 -0 -0 -0 0 0 -0 -0 -0 -0 0 -0 -0 -0 -0 0 0 0 0 0 -0 -0 -0 -0 -0 -0 -0 -0 -0 -0 -0
0 0 0 0 -0 0 0 0 -0 0 -0 -0 -0 0 -0 -0 0 0 0 0 -0 -0 -0 0 -0 -0 -0 -0 0 0 0 0 0 0 -0 -0 -0 -0 -0 -0 -0 -0 -0
0 0 0 0 0 0 0 0 0 0 0 -0 -0 -0 -0 -0 -0 -0 0 -0 0 0 0 0 -0 -0 -0 -0 -0 -0 0 0 0 0 0 -0 -0 -0 -0 -0 -0 -0 -0
0 0 0 0 0 0 0 0 0 0 -0 -0 -0 -0 0 0 0 0 0 -0 -0 0 0 0 0 0 0 -0 -0 -0 -0 0 0 0 0 -0 -0 -0 -0 -0 -0 -0 -0
0 0 0 0 0 0 0 0 0 0 0 0 0 0 -0 0 0 -0 0 0 0 -0 -0 0 0 -0 0 0 0 -0 -0 -0 -0 0 0 0 -0 -0 -0 -0 -0 -0 -0
0 0 0 0 0 0 0 0 0 0 0 0 0 0 0 0 0 0 0 -0 -0 0 0 0 0 0 0 0 0 0 -0 -0 -0 -0 -0 -0 -0 -0 -0 -0 -0 -0 -0
0 0 0 0 0 0 0 0 0 0 0 0 0 0 0 0 0 0 0 0 0 -0 0 0 0 0 0 0 0 -0 -0 -0 -0 -0 -0 -0 -0 -0 -0 -0 -0 -0 -0
0 0 0 0 0 0 0 0 0 0 0 0 0 0 0 0 0 0 -0 0 0 0 0 0 0 0 0 0 0 0 -0 -0 -0 -0 -0 -0 -0 -0 -0 -0 -0 -0 -0
0 0 0 0 0 0 0 0 0 0 0 0 0 0 0 0 0 0 0 0 0 0 0 0 0 0 0 0 0 0 -0 -0 -0 -0 -0 -0 0 -0 -0 -0 -0 -0 -0
0 0 0 0 0 0 0 0 0 0 0 0 0 0 0 0 0 0 0 0 0 0 0 0 0 0 0 0 0 -0 -0 -0 -0 0 0 -0 -0 0 0 -0 -0 -0 -0
-0 0 0 0 0 0 0 0 0 0 0 0 0 0 0 0 0 0 0 0 0 0 0 0 0 0 0 0 0 0 0 -0 0 -0 0 -0 -0 -0 0 -0 -0 -0 -0
0 -0 0 0 0 0 0 0 0 0 0 0 0 0 0 0 0 0 0 0 0 0 0 0 0 0 0 0 0 0 0 -0 0 0 0 -0 -0 -0 0 0 -0 -0 0
0 0 0 0 0 0 0 0 0 0 0 0 0 0 0 0 0 0 0 0 0 0 0 0 0 0 0 0 0 0 0 -0 -0 0 0 0 0 0 0 0 -0 -0 0
0 0 0 0 0 0 0 0 0 0 0 0 0 0 0 0 0 0 0 0 0 0 0 0 0 0 0 0 0 0 0 0 0 -0 -0 -0 0 0 -0 -0 -0 0 -0
0 0 0 0 0 0 0 0 0 0 0 0 0 0 0 0 0 0 0 0 0 0 0 0 0 0 0 0 0 0 0 0 0 0 0 0 0 0 0 -0 0 0 0
0 0 0 0 0 0 0 0 0 0 0 0 0 0 0 0 0 0 0 0 0 0 0 0 0 0 0 0 0 0 0 0 0 0 0 0 0 0 0 0 0 0 0
0 0 0 0 0 0 0 0 0 0 0 0 0 0 0 0 0 0 0 0 0 0 0 0 0 0 0 0 0 0 0 0 0 0 0 0 0 0 0 0 0 0 0
0 0 0 0 0 0 0 0 0 0 -0 -0 0 -0 0 0 0 0 0 0 0 0 0 0 0 0 0 0 0 0 0 0 0 0 0 0 0 0 0 0 0 0 0
0 0 0 0 0 0 0 0 0 0 0 0 0 0 0 0 0 0 0 0 0 0 0 0 0 0 0 0 0 0 0 0 0 0 0 0 0 0 0 0 0 0 0
0 0 0 0 0 0 0 0 0 0 0 0 0 0 0 0 0 0 0 0 0 0 0 0 0 0 0 0 0 0 0 0 0 0 0 0 0 0 0 0 0 0 0
0 0 0 0 0 0 0 0 0 0 0 0 0 0 0 0 0 0 0 0 0 0 0 0 0 0 0 0 0 0 0 0 0 0 0 0 0 0 0 0 0 0 0
0 0 0 0 0 0 0 0 0 0 0 0 0 0 0 0 0 0 0 0 0 0 0 0 0 0 0 0 0 0 0 0 0 0 0 0 0 0 0 0 0 0 0
0 0 0 0 0 0 0 0 0 0 0 0 0 0 0 0 0 0 0 0 0 0 0 0 0 0 0 0 0 0 0 0 0 0 0 0 0 0 0 0 0 0 0
Wind_Speed_500mb
21 17 21 19 20 22 18 21 27 28 30 30 31 32 33 32 32 33 36 41 42 41 40 36 40 40 37 31 28 26 25 23 22 20 19 18 15 13 12 10 10 9 9
21 23 17 22 24 21 19 23 18 22 26 30 29 29 27 33 35 37 37 36 37 37 41 44 38 44 43 44 39 34 32 30 27 25 23 22 20 19 17 16 16 14 12
25 22 21 22 22 19 23 25 26 24 25 33 33 32 35 33 34 31 28 30 32 31 30 33 38 40 45 45 48 45 40 40 35 33 30 27 25 23 23 22 21 18 16
23 27 25 20 18 20 21 24 24 26 27 31 32 34 35 38 40 38 34 34 35 35 37 36 28 32 39 40 47 49 48 47 46 43 39 34 31 29 28 26 24 23 21
26 27 29 24 25 21 26 25 21 27 24 25 33 34 36 42 42 43 43 40 40 37 36 37 36 33 31 33 39 44 49 50 52 50 48 43 39 36 35 33 30 28 26
30 31 30 29 24 26 27 32 31 25 24 28 29 34 35 39 46 48 48 44 41 41 37 36 32 35 34 35 35 39 45 51 53 55 56 51 45 44 41 38 38 36 33
38 39 37 33 30 34 27 25 28 34 33 23 29 33 34 34 43 49 50 51 48 43 43 42 41 39 40 39 33 34 35 43 48 54 56 56 53 49 48 46 44 43 42
41 46 45 44 38 37 35 33 34 34 34 26 31 28 25 28 31 44 51 54 54 50 48 49 49 46 42 39 37 34 33 34 38 42 48 52 51 51 50 51 50 49 48
51 52 51 50 48 46 41 39 36 38 37 32 31 27 12 11 11 16 28 44 55 58 57 55 49 48 49 46 43 42 40 38 36 36 39 41 42 45 46 48 50 52 53
60 62 59 59 57 53 50 43 40 41 43 43 38 39 40 36 19 15 13 10 17 27 43 53 54 53 50 53 49 49 47 45 41 40 39 41 41 40 40 41 43 45 49
66 66 66 63 61 59 57 50 47 46 46 45 46 43 40 38 41 44 48 29 20 18 23 27 38 48 53 55 55 53 52 48 48 46 43 42 43 43 43 40 38 39 40
43 49 65 68 66 59 56 56 50 44 44 45 43 47 45 40 37 35 40 40 35 30 27 24 29 36 41 58 56 54 53 55 54 52 53 49 51 48 45 41 39 35 32
43 35 36 48 56 59 49 41 48 46 47 45 47 47 44 45 42 42 42 43 42 40 39 34 25 25 26 34 43 51 52 53 54 58 59 55 56 53 49 44 41 37 35
48 35 23 14 27 40 44 39 40 48 49 48 49 49 43 44 48 45 47 41 42 45 45 34 24 25 31 33 39 42 53 55 53 51 54 54 56 50 40 40 37 39 39
38 44 35 15 20 32 39 41 44 33 35 38 43 43 42 40 42 43 44 45 44 45 48 43 34 23 23 22 25 39 45 45 47 52 53 44 47 48 46 50 53 54 53
32 32 32 29 18 25 25 35 32 22 22 26 33 40 42 40 39 41 43 44 45 47 50 46 40 34 31 25 28 31 29 35 40 48 51 55 59 52 54 55 56 57 61
32 30 25 26 20 10 20 25 33 26 28 30 34 41 42 37 42 43 43 43 45 48 52 51 44 30 26 27 29 27 22 23 26 34 41 45 49 48 47 47 50 50 53
34 34 26 19 19 11 21 20 17 30 21 23 31 42 40 33 34 44 47 42 41 42 47 51 43 43 38 36 30 25 26 30 26 25 30 33 36 40 40 38 41 42 44
34 32 29 21 18 17 15 12 14 14 13 25 29 34 33 29 31 35 39 45 43 43 46 51 48 43 40 34 30 28 26 26 29 30 31 36 39 43 41 35 35 33 38
36 34 31 29 23 17 20 27 31 29 27 24 23 17 20 24 29 34 37 38 44 47 46 48 49 46 44 35 34 31 41 36 34 35 37 34 35 36 38 43 38 37 35
34 36 37 31 27 23 17 11 13 19 29 30 28 25 27 26 32 37 38 38 36 41 43 46 49 51 53 46 41 36 36 31 42 45 40 36 34 32 31 34 38 34 35
34 37 37 37 35 28 21 19 21 23 23 27 32 35 36 36 40 42 36 30 32 38 41 46 46 53 53 48 42 38 35 36 42 37 39 42 43 39 40 40 37 38 37
39 43 43 44 43 39 34 34 35 37 37 36 38 38 39 39 44 44 40 38 34 33 35 41 46 47 45 45 40 40 40 40 43 41 38 38 42 46 44 40 38 38 41
46 53 47 40 39 36 34 37 40 43 44 43 40 41 43 39 36 38 45 45 44 40 37 39 43 46 52 46 48 49 45 43 44 43 43 46 40 37 41 42 42 41 37
52 44 37 34 32 32 31 33 36 38 41 36 32 33 34 34 28 31 34 40 44 46 45 48 49 48 45 44 43 47 51 48 51 52 44 50 50 45 44 40 38 36 33
44 39 39 37 34 33 31 31 32 37 32 26 20 24 29 33 30 28 28 31 36 32 31 32 36 42 45 45 40 43 47 52 54 56 49 48 49 45 43 45 42 39 38
Wind_Direction_500mb
238 255 258 264 252 255 249 256 252 245 247 234 232 234 230 226 229 232 242 244 243 241 241 242 243 241 241 239 235 237 234 233 238 241 236 234 233 227 227 234 234 242 249
245 250 262 247 247 254 258 252 260 245 243 237 234 227 222 226 234 244 247 240 238 243 243 245 251 241 241 242 237 237 244 243 242 247 250 248 244 244 249 251 252 255 260
253 253 256 255 252 242 247 250 254 252 247 237 237 235 241 235 230 232 233 229 234 243 243 246 247 244 244 243 241 242 243 247 246 248 250 249 245 247 250 252 256 258 266
258 251 251 257 257 246 247 252 255 251 248 246 246 245 245 239 235 235 233 232 234 238 248 255 258 248 243 242 240 241 244 246 244 245 245 247 249 250 254 258 254 256 265
257 260 259 257 251 241 255 253 252 254 256 258 255 253 249 243 237 236 237 235 242 246 248 252 256 255 249 247 247 246 244 243 243 242 244 246 248 252 253 256 257 258 263
265 263 266 263 260 258 255 252 251 260 267 262 266 256 253 249 240 237 238 243 246 245 243 250 254 255 253 250 250 251 247 245 245 242 240 243 248 252 253 255 257 259 261
260 262 264 266 262 259 264 257 254 253 261 261 261 260 258 261 250 241 241 243 244 243 248 246 252 253 255 254 253 253 253 247 245 242 238 241 248 252 253 255 256 259 262
267 267 264 264 264 262 262 259 257 260 265 253 257 264 276 273 269 248 245 246 250 253 249 243 250 253 251 246 253 257 255 253 248 242 240 243 248 250 251 254 257 258 261
276 270 263 260 261 261 259 263 264 259 261 258 258 248 262 251 274 261 252 254 255 256 252 249 248 247 249 249 250 250 253 249 243 241 243 248 252 257 258 261 261 260 257
278 270 264 260 260 260 257 259 258 258 258 258 258 251 247 255 269 293 273 254 281 267 256 253 250 248 250 251 253 247 248 251 248 246 243 246 251 252 257 262 264 263 259
274 268 260 257 255 259 257 254 253 253 251 261 260 260 254 253 259 263 278 288 285 277 281 269 255 255 253 249 247 245 246 248 249 246 247 248 252 256 260 263 264 262 257
295 279 260 255 251 255 260 256 247 252 248 253 255 255 257 255 258 262 269 283 294 282 285 274 275 273 267 244 244 247 247 249 246 244 252 245 251 257 255 249 256 260 259
342 321 288 263 246 246 250 239 245 251 253 251 250 249 248 259 263 267 267 271 282 287 291 294 281 282 277 255 248 249 249 252 249 249 243 246 247 254 254 252 252 255 253
7 5 349 292 249 250 258 258 258 257 257 258 254 254 252 255 258 263 265 268 271 279 285 290 299 294 286 271 253 253 254 252 245 241 240 243 243 252 257 247 249 257 260
14 18 20 339 267 254 249 255 252 269 266 264 259 259 261 260 256 255 258 262 266 269 279 280 285 300 304 283 268 259 250 244 236 236 237 236 240 243 247 250 243 248 252
347 352 358 3 304 259 255 242 232 245 264 262 261 259 258 255 254 252 254 255 256 261 268 274 276 294 287 298 295 286 261 242 233 233 232 233 240 247 249 253 248 246 249
347 336 335 341 344 279 235 225 235 255 281 270 264 264 260 258 259 255 251 251 255 252 257 270 273 278 274 288 286 285 258 242 230 229 229 227 232 244 252 248 244 248 251
357 356 349 334 351 321 273 240 282 265 265 281 276 263 261 261 266 250 253 256 258 256 254 262 267 263 275 282 285 266 266 238 237 231 229 234 238 246 251 249 247 250 249
3 356 356 346 316 300 300 289 296 275 284 275 280 258 250 257 267 273 259 260 253 258 256 256 261 264 272 271 266 258 258 250 244 236 242 252 249 245 247 243 249 247 255
360 353 353 352 343 333 283 278 269 278 271 275 281 264 245 255 271 277 272 268 249 257 255 258 260 264 266 262 260 269 247 257 254 251 249 248 250 244 244 242 242 253 260
357 353 343 340 340 341 333 327 298 282 268 265 255 253 256 268 269 273 275 272 265 259 253 253 260 262 265 258 261 264 264 262 241 250 246 243 237 244 237 234 249 260 254
337 336 334 330 327 326 315 306 305 298 292 279 272 266 264 258 264 264 263 264 259 257 259 257 256 261 265 258 264 266 267 259 256 249 248 243 241 247 246 246 251 263 255
321 324 319 316 312 305 299 292 290 287 285 284 277 274 271 268 265 261 255 253 255 256 259 256 255 258 263 259 264 264 264 262 258 260 260 259 249 249 242 246 256 257 258
326 329 321 314 308 307 299 288 284 284 283 282 280 276 275 274 270 266 254 250 254 257 255 258 261 266 266 268 264 259 259 263 259 258 253 254 249 246 240 245 258 260 259
325 324 325 322 316 315 313 303 293 292 291 288 284 278 271 273 278 269 267 264 263 263 264 265 265 266 264 265 264 264 256 258 258 257 257 254 252 247 242 249 257 258 258
320 319 321 313 309 307 301 298 300 302 293 283 280 278 270 272 275 276 281 280 274 274 269 269 267 266 266 267 269 260 260 258 255 257 256 251 256 254 255 252 255 259 259
Wind_Speed_850mb
21 17 21 19 20 22 18 21 27 28 30 30 31 32 33 32 32 33 36 41 42 41 40 36 40 40 37 31 28 26 25 23 22 20 19 18 15 13 12 10 10 9 9
21 23 17 22 24 21 19 23 18 22 26 30 29 29 27 33 35 37 37 36 37 37 41 44 38 44 43 44 39 34 32 30 27 25 23 22 20 19 17 16 16 14 12
25 22 21 22 22 19 23 25 26 24 25 33 33 32 35 33 34 31 28 30 32 31 30 33 38 40 45 45 48 45 40 40 35 33 30 27 25 23 23 22 21 18 16
23 27 25 20 18 20 21 24 24 26 27 31 32 34 35 38 40 38 34 34 35 35 37 36 28 32 39 40 47 49 48 47 46 43 39 34 31 29 28 26 24 23 21
26 27 29 24 25 21 26 25 21 27 24 25 33 34 36 42 42 43 43 40 40 37 36 37 36 33 31 33 39 44 49 50 52 50 48 43 39 36 35 33 30 28 26
30 31 30 29 24 26 27 32 31 25 24 28 29 34 35 39 46 48 48 44 41 41 37 36 32 35 34 35 35 39 45 51 53 55 56 51 45 44 41 38 38 36 33
38 39 37 33 30 34 27 25 28 34 33 23 29 33 34 34 43 49 50 51 48 43 43 42 41 39 40 39 33 34 35 43 48 54 56 56 53 49 48 46 44 43 42
41 46 45 44 38 37 35 33 34 34 34 26 31 28 25 28 31 44 51 54 54 50 48 49 49 46 42 39 37 34 33 34 38 42 48 52 51 51 50 51 50 49 48
51 52 51 50 48 46 41 39 36 38 37 32 31 27 12 11 11 16 28 44 55 58 57 55 49 48 49 46 43 42 40 38 36 36 39 41 42 45 46 48 50 52 53
60 62 59 59 57 53 50 43 40 41 43 43 38 39 40 36 19 15 13 10 17 27 43 53 54 53 50 53 49 49 47 45 41 40 39 41 41 40 40 41 43 45 49
66 66 66 63 61 59 57 50 47 46 46 45 46 43 40 38 41 44 48 29 20 18 23 27 38 48 53 55 55 53 52 48 48 46 43 42 43 43 43 40 38 39 40
43 49 65 68 66 59 56 56 50 44 44 45 43 47 45 40 37 35 40 40 35 30 27 24 29 36 41 58 56 54 53 55 54 52 53 49 51 48 45 41 39 35 32
43 35 36 48 56 59 49 41 48 46 47 45 47 47 44 45 42 42 42 43 42 40 39 34 25 25 26 34 43 51 52 53 54 58 59 55 56 53 49 44 41 37 35
48 35 23 14 27 40 44 39 40 48 49 48 49 49 43 44 48 45 47 41 42 45 45 34 24 25 31 33 39 42 53 55 53 51 54 54 56 50 40 40 37 39 39
38 44 35 15 20 32 39 41 44 33 35 38 43 43 42 40 42 43 44 45 44 45 48 43 34 23 23 22 25 39 45 45 47 52 53 44 47 48 46 50 53 54 53
32 32 32 29 18 25 25 35 32 22 22 26 33 40 42 40 39 41 43 44 45 47 50 46 40 34 31 25 28 31 29 35 40 48 51 55 59 52 54 55 56 57 61
32 30 25 26 20 10 20 25 33 26 28 30 34 41 42 37 42 43 43 43 45 48 52 51 44 30 26 27 29 27 22 23 26 34 41 45 49 48 47 47 50 50 53
34 34 26 19 19 11 21 20 17 30 21 23 31 42 40 33 34 44 47 42 41 42 47 51 43 43 38 36 30 25 26 30 26 25 30 33 36 40 40 38 41 42 44
34 32 29 21 18 17 15 12 14 14 13 25 29 34 33 29 31 35 39 45 43 43 46 51 48 43 40 34 30 28 26 26 29 30 31 36 39 43 41 35 35 33 38
36 34 31 29 23 17 20 27 31 29 27 24 23 17 20 24 29 34 37 38 44 47 46 48 49 46 44 35 34 31 41 36 34 35 37 34 35 36 38 43 38 37 35
34 36 37 31 27 23 17 11 13 19 29 30 28 25 27 26 32 37 38 38 36 41 43 46 49 51 53 46 41 36 36 31 42 45 40 36 34 32 31 34 38 34 35
34 37 37 37 35 28 21 19 21 23 23 27 32 35 36 36 40 42 36 30 32 38 41 46 46 53 53 48 42 38 35 36 42 37 39 42 43 39 40 40 37 38 37
39 43 43 44 43 39 34 34 35 37 37 36 38 38 39 39 44 44 40 38 34 33 35 41 46 47 45 45 40 40 40 40 43 41 38 38 42 46 44 40 38 38 41
46 53 47 40 39 36 34 37 40 43 44 43 40 41 43 39 36 38 45 45 44 40 37 39 43 46 52 46 48 49 45 43 44 43 43 46 40 37 41 42 42 41 37
52 44 37 34 32 32 31 33 36 38 41 36 32 33 34 34 28 31 34 40 44 46 45 48 49 48 45 44 43 47 51 48 51 52 44 50 50 45 44 40 38 36 33
44 39 39 37 34 33 31 31 32 37 32 26 20 24 29 33 30 28 28 31 36 32 31 32 36 42 45 45 40 43 47 52 54 56 49 48 49 45 43 45 42 39 38
Wind_Direction_850mb
238 255 258 264 252 255 249 256 252 245 247 234 232 234 230 226 229 232 242 244 243 241 241 242 243 241 241 239 235 237 234 233 238 241 236 234 233 227 227 234 234 242 249
245 250 262 247 247 254 258 252 260 245 243 237 234 227 222 226 234 244 247 240 238 243 243 245 251 241 241 242 237 237 244 243 242 247 250 248 244 244 249 251 252 255 260
253 253 256 255 252 242 247 250 254 252 247 237 237 235 241 235 230 232 233 229 234 243 243 246 247 244 244 243 241 242 243 247 246 248 250 249 245 247 250 252 256 258 266
258 251 251 257 257 246 247 252 255 251 248 246 246 245 245 239 235 235 233 232 234 238 248 255 258 248 243 242 240 241 244 246 244 245 245 247 249 250 254 258 254 256 265
257 260 259 257 251 241 255 253 252 254 256 258 255 253 249 243 237 236 237 235 242 246 248 252 256 255 249 247 247 246 244 243 243 242 244 246 248 252 253 256 257 258 263
265 263 266 263 260 258 255 252 251 260 267 262 266 256 253 249 240 237 238 243 246 245 243 250 254 255 253 250 250 251 247 245 245 242 240 243 248 252 253 255 257 259 261
260 262 264 266 262 259 264 257 254 253 261 261 261 260 258 261 250 241 241 243 244 243 248 246 252 253 255 254 253 253 253 247 245 242 238 241 248 252 253 255 256 259 262
267 267 264 264 264 262 262 259 257 260 265 253 257 264 276 273 269 248 245 246 250 253 249 243 250 253 251 246 253 257 255 253 248 242 240 243 248 250 251 254 257 258 261
276 270 263 260 261 261 259 263 264 259 261 258 258 248 262 251 274 261 252 254 255 256 252 249 248 247 249 249 250 250 253 249 243 241 243 248 252 257 258 261 261 260 257
278 270 264 260 260 260 257 259 258 258 258 258 258 251 247 255 269 293 273 254 281 267 256 253 250 248 250 251 253 247 248 251 248 246 243 246 251 252 257 262 264 263 259
274 268 260 257 255 259 257 254 253 253 251 261 260 260 254 253 259 263 278 288 285 277 281 269 255 255 253 249 247 245 246 248 249 246 247 248 252 256 260 263 264 262 257
295 279 260 255 251 255 260 256 247 252 248 253 255 255 257 255 258 262 269 283 294 282 285 274 275 273 267 244 244 247 247 249 246 244 252 245 251 257 255 249 256 260 259
342 321 288 263 246 246 250 239 245 251 253 251 250 249 248 259 263 267 267 271 282 287 291 294 281 282 277 255 248 249 249 252 249 249 243 246 247 254 254 252 252 255 253
7 5 349 292 249 250 258 258 258 257 257 258 254 254 252 255 258 263 265 268 271 279 285 290 299 294 286 271 253 253 254 252 245 241 240 243 243 252 257 247 249 257 260
14 18 20 339 267 254 249 255 252 269 266 264 259 259 261 260 256 255 258 262 266 269 279 280 285 300 304 283 268 259 250 244 236 236 237 236 240 243 247 250 243 248 252
347 352 358 3 304 259 255 242 232 245 264 262 261 259 258 255 254 252 254 255 256 261 268 274 276 294 287 298 295 286 261 242 233 233 232 233 240 247 249 253 248 246 249
347 336 335 341 344 279 235 225 235 255 281 270 264 264 260 258 259 255 251 251 255 252 257 270 273 278 274 288 286 285 258 242 230 229 229 227 232 244 252 248 244 248 251
357 356 349 334 351 321 273 240 282 265 265 281 276 263 261 261 266 250 253 256 258 256 254 262 267 263 275 282 285 266 266 238 237 231 229 234 238 246 251 249 247 250 249
3 356 356 346 316 300 300 289 296 275 284 275 280 258 250 257 267 273 259 260 253 258 256 256 261 264 272 271 266 258 258 250 244 236 242 252 249 245 247 243 249 247 255
360 353 353 352 343 333 283 278 269 278 271 275 281 264 245 255 271 277 272 268 249 257 255 258 260 264 266 262 260 269 247 257 254 251 249 248 250 244 244 242 242 253 260
357 353 343 340 340 341 333 327 298 282 268 265 255 253 256 268 269 273 275 272 265 259 253 253 260 262 265 258 261 264 264 262 241 250 246 243 237 244 237 234 249 260 254
337 336 334 330 327 326 315 306 305 298 292 279 272 266 264 258 264 264 263 264 259 257 259 257 256 261 265 258 264 266 267 259 256 249 248 243 241 247 246 246 251 263 255
321 324 319 316 312 305 299 292 290 287 285 284 277 274 271 268 265 261 255 253 255 256 259 256 255 258 263 259 264 264 264 262 258 260 260 259 249 249 242 246 256 257 258
326 329 321 314 308 307 299 288 284 284 283 282 280 276 275 274 270 266 254 250 254 257 255 258 261 266 266 268 264 259 259 263 259 258 253 254 249 246 240 245 258 260 259
325 324 325 322 316 315 313 303 293 292 291 288 284 278 271 273 278 269 267 264 263 263 264 265 265 266 264 265 264 264 256 258 258 257 257 254 252 247 242 249 257 258 258
320 319 321 313 309 307 301 298 300 302 293 283 280 278 270 272 275 276 281 280 274 274 269 269 267 266 266 267 269 260 260 258 255 257 256 251 256 254 255 252 255 259 259